Location: Biharia
(46.4333°N, 22.8000°E)
Time: 02:11:05
(UTC+00:00)

Cosmos 1605 Rocket - Pass Details

Date: 16 October 2021
Orbit: 945 x 1005 km, 82.9° (Epoch: 02 December)

Event Time Altitude Azimuth Distance (km) Brightness Sun altitude
Rises 17:04:31 0° 159° (SSE) 3,642 6.8 -15.3°
Reaches altitude 10° 17:07:10 10° 151° (SSE) 2,709 6.0 -15.7°
Maximum altitude 17:12:45 36° 87° (E) 1,500 4.5 -16.7°
Drops below altitude 10° 17:18:26 10° 23° (NNE) 2,763 6.2 -17.7°
Sets 17:21:09 0° 16° (NNE) 3,725 6.9 -18.1°
